EW7175 Weather Reports


Display with metric or nautical units.
time (UTC)temp
F
wind
direction
speed
MPH
gust
MPH
rain 1hr
in
rain 24hr
in
rain mn
in
humidity
%
barometer
mb
20260506123007 76 172 0.0 0.0 0.00 0.00 0.00 93 1007.9
20260506121511 76 172 0.0 0.0 0.00 0.00 0.00 93 1007.8
20260506120011 75 172 0.0 0.0 0.00 0.00 0.00 93 1007.7
20260506114505 75 172 0.0 0.0 0.00 0.00 0.00 93 1007.5
20260506113003 75 172 0.0 0.0 0.00 0.00 0.00 93 1007.3
20260506111502 75 180 0.0 0.0 0.00 0.00 0.00 93 1007.1
20260506110002 75 181 0.0 0.0 0.00 0.00 0.00 92 1006.8
20260506104615 75 173 0.0 0.0 0.00 0.00 0.00 92 1006.7
20260506103058 76 173 0.0 0.0 0.00 0.00 0.00 91 1006.7
20260506101557 76 176 0.0 0.0 0.00 0.00 0.00 91 1006.7
20260506100110 76 163 0.0 0.0 0.00 0.00 0.00 90 1006.7
20260506094601 76 221 0.0 0.0 0.00 0.00 0.00 90 1006.6
20260506093053 77 147 0.0 0.0 0.00 0.00 0.00 90 1006.3
20260506091552 77 165 0.0 0.0 0.00 0.00 0.00 89 1006.4
20260506090050 77 165 0.0 0.0 0.00 0.00 0.00 89 1006.4
20260506084617 77 165 0.0 0.0 0.00 0.00 0.00 89 1006.5
20260506083048 77 163 0.0 0.0 0.00 0.00 0.00 89 1006.6
20260506081554 77 186 0.0 0.0 0.00 0.00 0.00 89 1006.7
20260506073044 77 162 0.0 0.0 0.00 0.00 0.00 89 1007.2
20260506071541 77 171 0.0 0.0 0.00 0.00 0.00 89 1007.4
20260506061537 77 173 0.0 0.0 0.00 0.00 0.00 88 1007.5
20260506044536 78 152 0.0 0.0 0.00 0.00 0.00 86 1007.3
20260506043029 78 209 0.0 0.0 0.00 0.00 0.00 85 1007.7
20260506041530 78 148 0.0 0.0 0.00 0.00 0.00 84 1007.5
20260506040034 79 178 0.0 0.0 0.00 0.00 0.00 84 1007.5
20260506034532 79 262 0.0 0.0 0.00 0.00 0.00 84 1007.1
20260506033027 79 167 0.0 0.0 0.00 0.00 0.00 84 1007.2
20260506031536 79 175 0.0 0.0 0.00 0.00 0.00 84 1007.0
20260506030027 79 126 0.0 0.0 0.00 0.00 0.00 83 1006.7
20260506024528 79 141 0.0 0.0 0.00 0.00 0.00 83 1006.5
20260506023047 79 168 0.0 0.0 0.00 0.00 0.00 82 1006.2
20260506021538 80 161 0.0 0.0 0.00 0.00 0.00 82 1006.1
20260506020027 80 181 0.0 0.0 0.00 0.00 0.00 81 1006.0
20260506014525 80 190 0.0 0.0 0.00 0.00 0.00 80 1005.9
20260506013031 80 212 0.0 0.0 0.00 0.00 0.00 80 1005.6
20260506011525 80 172 0.0 0.0 0.00 0.00 0.00 80 1005.4
20260506010024 80 171 0.0 0.0 0.00 0.00 0.00 79 1005.0
20260506004527 81 209 0.0 0.0 0.00 0.00 0.00 79 1005.1
20260506003023 81 187 0.0 6.0 0.00 0.00 0.00 78 1005.0
20260506001523 81 173 0.0 0.0 0.00 0.00 0.00 77 1004.9
20260506000023 81 180 0.0 0.0 0.00 0.00 0.00 76 1004.9
20260505234524 82 153 0.0 0.0 0.00 0.00 0.00 76 1004.9
20260505233020 82 174 0.0 0.0 0.00 0.00 0.00 77 1004.8
20260505231535 82 159 0.0 0.0 0.00 0.00 0.00 76 1004.8
20260505230024 82 165 0.0 0.0 0.00 0.00 0.00 76 1004.9
20260505224518 83 175 0.0 0.0 0.00 0.00 0.00 76 1004.8
20260505223018 83 150 0.0 0.0 0.00 0.00 0.00 76 1004.9
20260505221518 83 244 0.0 0.0 0.00 0.00 0.00 76 1004.9
20260505220022 83 144 0.0 0.0 0.00 0.00 0.00 76 1005.0
20260505214516 83 190 0.0 0.0 0.00 0.00 0.00 77 1005.3
20260505213017 83 150 0.0 0.0 0.00 0.00 0.00 75 1005.5
20260505211513 83 187 0.0 0.0 0.00 0.00 0.00 76 1005.6
20260505210013 84 59 0.0 0.0 0.00 0.00 0.00 76 1005.7
20260505204512 84 213 0.0 0.0 0.00 0.00 0.00 74 1005.9
20260505203009 85 153 0.0 0.0 0.00 0.00 0.00 73 1006.0
20260505201502 84 253 0.0 0.0 0.00 0.00 0.00 74 1006.3
20260505200100 83 185 0.0 0.0 0.00 0.00 0.00 76 1006.7
20260505194559 83 182 0.0 0.0 0.00 0.00 0.00 75 1006.7
20260505193058 83 174 0.0 0.0 0.00 0.00 0.00 76 1006.8
20260505191611 83 162 0.0 0.0 0.00 0.00 0.00 75 1006.9
20260505190057 83 176 0.0 0.0 0.00 0.00 0.00 75 1006.9
20260505184552 82 175 0.0 0.0 0.00 0.00 0.00 77 1007.1
20260505183052 82 170 0.0 0.0 0.00 0.00 0.00 78 1007.2
20260505181550 81 210 0.0 0.0 0.00 0.00 0.00 80 1007.3
20260505180051 81 165 0.0 0.0 0.00 0.00 0.00 80 1007.4
20260505174547 80 176 0.0 0.0 0.00 0.00 0.00 81 1007.5
20260505173043 80 180 0.0 0.0 0.00 0.00 0.00 82 1007.8
20260505171545 80 179 0.0 0.0 0.00 0.00 0.00 84 1007.8
20260505170101 78 350 0.0 0.0 0.00 0.00 0.00 86 1008.0
20260505164543 79 151 0.0 0.0 0.00 0.00 0.00 84 1008.0
20260505163042 79 196 0.0 0.0 0.00 0.00 0.00 83 1007.9
20260505161538 78 157 0.0 0.0 0.00 0.00 0.00 84 1007.8
20260505153036 77 208 0.0 0.0 0.00 0.00 0.00 85 1007.6
20260505151549 77 180 0.0 0.0 0.00 0.00 0.00 85 1007.6
20260505124512 73 138 0.0 0.0 0.00 0.00 0.00 91 1007.0